Total_Precipitation_Accumulation
1.66 1.61 1.63 1.59 1.51 1.39 1.30 1.21 1.15 1.10 1.05 1.02 1.01 0.99 0.98 0.98 0.97 1.00 0.98 0.99 1.05 1.07 1.05 1.05 1.04 1.06 1.10 1.08 1.15 1.26 1.41 1.59 1.72 1.56 1.38 1.27 1.23 1.25 1.27 1.17 1.12 1.05 0.97
1.33 1.44 1.53 1.43 1.37 1.30 1.24 1.17 1.11 0.99 0.93 0.92 0.94 0.90 0.82 0.81 0.88 0.95 0.97 0.95 1.02 1.02 1.01 1.04 1.02 1.02 1.04 1.04 1.09 1.15 1.28 1.46 1.62 1.67 1.50 1.35 1.26 1.22 1.21 1.15 0.96 0.89 0.91
1.07 1.09 1.21 1.25 1.21 1.18 1.07 0.99 0.95 0.91 0.90 0.88 0.85 0.83 0.81 0.77 0.80 0.81 0.82 0.83 0.89 0.95 0.97 1.02 1.03 1.05 1.02 1.01 1.05 1.11 1.23 1.36 1.54 1.61 1.52 1.42 1.35 1.26 1.30 1.19 1.06 1.13 0.97
0.92 0.97 1.04 1.06 1.07 1.09 1.01 0.92 0.88 0.84 0.82 0.80 0.75 0.74 0.80 0.79 0.71 0.66 0.68 0.72 0.80 0.82 0.83 0.94 1.00 1.02 1.00 1.05 1.08 1.13 1.21 1.38 1.50 1.55 1.47 1.37 1.33 1.33 1.38 1.37 1.30 1.26 1.14
0.88 0.94 1.03 0.97 0.93 1.00 1.05 0.94 0.84 0.80 0.77 0.78 0.72 0.68 0.73 0.72 0.65 0.65 0.65 0.66 0.71 0.71 0.73 0.80 0.85 0.86 0.85 0.91 0.93 1.03 1.17 1.33 1.42 1.48 1.44 1.38 1.31 1.41 1.43 1.36 1.31 1.32 1.20
0.82 0.94 1.01 1.00 0.98 1.02 1.08 1.02 0.94 0.88 0.85 0.81 0.76 0.71 0.71 0.65 0.65 0.60 0.58 0.61 0.67 0.73 0.79 0.79 0.74 0.73 0.70 0.67 0.73 0.84 1.01 1.22 1.39 1.46 1.42 1.40 1.35 1.38 1.48 1.45 1.42 1.45 1.42
0.88 0.89 0.96 1.01 1.06 1.09 1.07 1.04 1.00 0.98 0.96 0.86 0.77 0.74 0.71 0.64 0.56 0.47 0.46 0.52 0.67 0.77 0.84 0.81 0.70 0.66 0.75 0.75 0.74 0.77 0.89 1.03 1.25 1.47 1.52 1.41 1.38 1.42 1.55 1.60 1.53 1.52 1.49
0.92 0.88 0.85 0.88 0.91 0.91 0.98 1.03 1.00 0.96 0.91 0.85 0.78 0.73 0.68 0.52 0.45 0.43 0.45 0.48 0.58 0.63 0.67 0.73 0.82 0.84 0.76 0.76 0.74 0.85 0.95 1.06 1.14 1.27 1.45 1.37 1.31 1.38 1.49 1.53 1.48 1.43 1.36
0.86 0.81 0.74 0.71 0.74 0.75 0.83 0.94 1.00 0.97 0.87 0.79 0.72 0.69 0.64 0.52 0.47 0.45 0.46 0.51 0.57 0.54 0.51 0.55 0.61 0.64 0.65 0.72 0.82 0.97 1.02 1.13 1.15 1.31 1.33 1.27 1.27 1.30 1.25 1.29 1.50 1.61 1.50
0.75 0.68 0.63 0.62 0.67 0.68 0.74 0.85 0.91 0.92 0.81 0.67 0.60 0.60 0.57 0.55 0.49 0.42 0.41 0.45 0.53 0.51 0.53 0.60 0.59 0.51 0.55 0.68 0.86 1.05 1.19 1.22 1.31 1.49 1.47 1.44 1.35 1.30 1.20 1.22 1.51 1.70 1.65
0.60 0.58 0.60 0.65 0.68 0.67 0.74 0.81 0.79 0.73 0.72 0.65 0.60 0.58 0.52 0.44 0.39 0.34 0.35 0.39 0.46 0.51 0.57 0.66 0.67 0.58 0.52 0.59 0.78 0.97 1.13 1.17 1.39 1.64 1.53 1.38 1.33 1.29 1.26 1.25 1.37 1.46 1.43
0.58 0.61 0.65 0.65 0.61 0.60 0.71 0.78 0.71 0.69 0.68 0.66 0.64 0.58 0.48 0.39 0.33 0.28 0.26 0.28 0.32 0.51 0.66 0.65 0.65 0.62 0.59 0.65 0.79 0.95 1.08 1.25 1.45 1.56 1.35 1.19 1.10 1.08 1.12 1.08 1.05 1.06 1.11
0.56 0.65 0.66 0.62 0.68 0.68 0.65 0.65 0.65 0.67 0.59 0.54 0.55 0.52 0.48 0.42 0.35 0.27 0.23 0.24 0.30 0.43 0.59 0.63 0.60 0.58 0.67 0.88 0.99 1.08 1.23 1.44 1.49 1.35 1.20 1.08 0.96 0.95 0.91 0.90 0.89 0.94 0.94
0.60 0.62 0.60 0.64 0.74 0.72 0.63 0.53 0.51 0.51 0.48 0.44 0.45 0.44 0.46 0.44 0.34 0.30 0.30 0.31 0.34 0.41 0.53 0.66 0.71 0.73 0.90 1.10 1.24 1.32 1.42 1.47 1.33 1.20 1.11 0.98 0.84 0.87 0.86 0.82 0.90 0.94 0.97
0.55 0.58 0.59 0.60 0.64 0.67 0.58 0.45 0.42 0.37 0.30 0.30 0.32 0.33 0.40 0.38 0.27 0.26 0.29 0.32 0.36 0.40 0.47 0.68 0.83 0.87 1.00 1.15 1.28 1.35 1.39 1.39 1.31 1.19 1.10 0.99 0.90 0.88 0.84 0.77 0.82 0.83 0.87
0.53 0.51 0.46 0.48 0.50 0.50 0.51 0.45 0.30 0.18 0.14 0.13 0.14 0.18 0.21 0.23 0.20 0.19 0.22 0.28 0.33 0.41 0.55 0.83 0.92 0.91 0.97 1.06 1.17 1.27 1.26 1.23 1.17 1.16 1.14 1.10 1.00 0.87 0.84 0.79 0.77 0.81 0.88
0.48 0.47 0.39 0.37 0.40 0.41 0.42 0.48 0.43 0.26 0.13 0.10 0.09 0.12 0.14 0.14 0.17 0.18 0.20 0.26 0.31 0.44 0.61 0.82 0.92 0.97 1.01 1.05 1.07 1.10 1.15 1.16 1.10 1.07 1.06 1.01 0.91 0.83 0.79 0.80 0.78 0.80 0.81
0.35 0.32 0.32 0.38 0.37 0.35 0.34 0.33 0.37 0.43 0.37 0.28 0.17 0.14 0.15 0.17 0.19 0.19 0.22 0.27 0.35 0.42 0.60 0.77 0.88 0.95 1.01 1.04 1.03 0.99 1.03 1.05 0.99 0.92 0.91 0.89 0.84 0.80 0.79 0.78 0.76 0.71 0.68
0.31 0.29 0.29 0.31 0.31 0.27 0.25 0.25 0.28 0.34 0.36 0.36 0.31 0.23 0.19 0.21 0.23 0.23 0.28 0.36 0.44 0.47 0.54 0.65 0.76 0.85 0.86 0.87 0.90 0.92 0.95 0.97 0.91 0.87 0.87 0.88 0.85 0.79 0.72 0.64 0.58 0.49 0.51
0.20 0.18 0.22 0.26 0.25 0.22 0.22 0.23 0.25 0.29 0.32 0.32 0.34 0.31 0.27 0.35 0.45 0.41 0.37 0.42 0.46 0.47 0.51 0.61 0.69 0.71 0.71 0.67 0.68 0.72 0.77 0.78 0.79 0.81 0.81 0.78 0.73 0.67 0.59 0.52 0.50 0.50 0.52
0.16 0.17 0.19 0.19 0.18 0.18 0.19 0.18 0.17 0.22 0.27 0.31 0.28 0.26 0.36 0.44 0.52 0.50 0.49 0.53 0.55 0.53 0.52 0.56 0.59 0.62 0.61 0.59 0.57 0.56 0.59 0.63 0.66 0.69 0.72 0.70 0.63 0.57 0.51 0.45 0.43 0.41 0.42
0.15 0.17 0.18 0.16 0.16 0.15 0.15 0.15 0.15 0.19 0.23 0.28 0.28 0.27 0.37 0.42 0.47 0.49 0.52 0.57 0.61 0.59 0.55 0.55 0.57 0.57 0.58 0.55 0.51 0.50 0.51 0.56 0.57 0.59 0.60 0.57 0.53 0.49 0.41 0.36 0.34 0.34 0.36
0.15 0.17 0.17 0.15 0.13 0.13 0.13 0.14 0.15 0.18 0.22 0.25 0.28 0.29 0.34 0.44 0.48 0.54 0.61 0.63 0.63 0.64 0.58 0.54 0.59 0.63 0.56 0.49 0.44 0.43 0.42 0.45 0.44 0.47 0.56 0.56 0.49 0.43 0.38 0.32 0.30 0.31 0.32
0.14 0.14 0.15 0.16 0.15 0.14 0.13 0.13 0.11 0.12 0.16 0.19 0.23 0.23 0.27 0.35 0.42 0.47 0.54 0.60 0.65 0.66 0.64 0.64 0.68 0.62 0.50 0.44 0.39 0.38 0.39 0.42 0.40 0.42 0.45 0.49 0.45 0.38 0.33 0.31 0.29 0.31 0.33
0.12 0.12 0.13 0.13 0.12 0.12 0.12 0.11 0.10 0.11 0.14 0.15 0.16 0.18 0.21 0.24 0.28 0.33 0.39 0.45 0.49 0.53 0.54 0.57 0.57 0.49 0.42 0.37 0.35 0.36 0.41 0.38 0.35 0.38 0.43 0.47 0.41 0.36 0.32 0.29 0.29 0.29 0.30
0.10 0.10 0.10 0.09 0.08 0.08 0.09 0.09 0.09 0.10 0.12 0.13 0.13 0.15 0.18 0.21 0.25 0.29 0.32 0.34 0.36 0.40 0.44 0.48 0.47 0.38 0.31 0.28 0.29 0.28 0.25 0.21 0.20 0.24 0.34 0.39 0.34 0.29 0.31 0.30 0.27 0.29 0.33